EW6762 Weather Reports


time (UTC)temp
F
wind
direction
speed
knots
gust
knots
rain 1hr
in
rain 24hr
in
rain mn
in
humidity
%
barometer
mb
20260904124312 83 218 3.5 7.0 0.00 0.00 0.00 89 1017.7
20260904123334 82 245 1.7 8.7 0.00 0.00 0.00 90 1017.8
20260904122328 81 256 3.5 6.1 0.00 0.00 0.00 91 1017.9
20260904121330 81 205 5.2 7.8 0.00 0.00 0.00 92 1018.0
20260904120323 80 229 3.5 5.2 0.00 0.00 0.00 92 1017.9
20260904115325 80 249 2.6 6.1 0.00 0.00 0.00 93 1017.8
20260904114319 80 197 2.6 4.3 0.00 0.00 0.00 93 1017.8
20260904113316 79 244 2.6 5.2 0.00 0.00 0.00 93 1017.8
20260904112317 79 180 1.7 3.5 0.00 0.00 0.00 93 1017.7
20260904111313 79 200 0.9 3.5 0.00 0.00 0.00 93 1017.7
20260904110334 79 180 1.7 4.3 0.00 0.00 0.00 93 1017.6
20260904105330 79 152 1.7 3.5 0.00 0.00 0.00 93 1017.6
20260904104309 79 205 1.7 3.5 0.00 0.00 0.00 92 1017.5
20260904103327 80 218 1.7 3.5 0.00 0.00 0.00 92 1017.3
20260904102330 79 227 1.7 3.5 0.00 0.00 0.00 92 1017.2
20260904101324 80 257 1.7 3.5 0.00 0.00 0.00 92 1017.1
20260904100319 80 184 1.7 3.5 0.00 0.00 0.00 92 1017.1
20260904095318 80 203 1.7 3.5 0.00 0.00 0.00 92 1017.1
20260904094313 80 160 1.7 3.5 0.00 0.00 0.00 92 1017.0
20260904093316 80 211 1.7 3.5 0.00 0.00 0.00 92 1017.0
20260904092328 80 207 1.7 3.5 0.00 0.00 0.00 91 1017.0
20260904091329 80 168 2.6 5.2 0.00 0.00 0.00 91 1016.9
20260904090327 80 207 1.7 4.3 0.00 0.00 0.00 91 1016.8
20260904085348 80 137 1.7 4.3 0.00 0.00 0.00 91 1016.7
20260904084343 80 215 3.5 5.2 0.00 0.00 0.00 91 1016.8
20260904083343 80 205 1.7 4.3 0.00 0.00 0.00 90 1016.8
20260904082318 81 207 2.6 5.2 0.00 0.00 0.00 90 1016.8
20260904081319 81 219 2.6 6.1 0.00 0.00 0.00 90 1016.8
20260904080313 81 175 2.6 5.2 0.00 0.00 0.00 90 1016.6
20260904075334 81 222 3.5 4.3 0.00 0.00 0.00 90 1016.7
20260904074328 81 207 2.6 5.2 0.00 0.00 0.00 90 1016.7
20260904073325 81 179 2.6 4.3 0.00 0.00 0.00 89 1016.8
20260904072339 81 212 2.6 7.0 0.00 0.00 0.00 89 1016.9
20260904071337 81 211 0.9 4.3 0.00 0.00 0.00 89 1016.9
20260904070310 81 234 1.7 7.0 0.00 0.00 0.00 89 1017.0
20260904065332 81 223 2.6 5.2 0.00 0.00 0.00 88 1017.0
20260904064332 82 192 2.6 8.7 0.00 0.00 0.00 88 1017.1
20260904063343 82 209 1.7 4.3 0.00 0.00 0.00 88 1017.3
20260904062318 82 161 1.7 5.2 0.00 0.00 0.00 87 1017.6
20260904061328 82 195 1.7 5.2 0.00 0.00 0.00 87 1017.5
20260904060328 82 155 1.7 5.2 0.00 0.00 0.00 87 1017.5
20260904055320 82 218 2.6 5.2 0.00 0.00 0.00 86 1017.7
20260904054324 82 188 2.6 7.0 0.00 0.00 0.00 86 1017.7
20260904053322 82 229 2.6 6.1 0.00 0.00 0.00 86 1017.7
20260904052316 83 200 2.6 5.2 0.00 0.00 0.00 85 1017.9
20260904051316 83 230 1.7 4.3 0.00 0.00 0.00 85 1017.8
20260904050355 83 178 2.6 6.1 0.00 0.00 0.00 84 1017.9
20260904045310 83 138 2.6 6.1 0.00 0.00 0.00 84 1017.9
20260904044322 83 113 3.5 8.7 0.00 0.00 0.00 83 1018.0
20260904043324 83 140 2.6 6.1 0.00 0.00 0.00 83 1018.0
20260904042316 84 138 2.6 6.1 0.00 0.00 0.00 82 1017.9
20260904041310 84 226 2.6 7.8 0.00 0.00 0.00 81 1017.9
20260904040357 84 137 1.7 6.1 0.00 0.00 0.00 81 1017.9
20260904035328 84 159 2.6 6.1 0.00 0.00 0.00 80 1017.9
20260904034323 84 121 2.6 4.3 0.00 0.00 0.00 79 1018.0
20260904033326 85 123 2.6 6.1 0.00 0.00 0.00 79 1018.1
20260904032321 85 150 2.6 6.1 0.00 0.00 0.00 78 1018.0
20260904031317 85 221 2.6 7.0 0.00 0.00 0.00 77 1018.1
20260904030319 85 155 3.5 6.1 0.00 0.00 0.00 76 1018.1
20260904025335 86 111 2.6 7.8 0.00 0.00 0.00 76 1018.2
20260904024321 86 149 2.6 8.7 0.00 0.00 0.00 75 1018.2
20260904023317 86 150 3.5 7.0 0.00 0.00 0.00 74 1018.1
20260904022314 86 119 3.5 7.0 0.00 0.00 0.00 73 1018.1
20260904021316 87 132 2.6 4.3 0.00 0.00 0.00 73 1018.3
20260904020312 87 144 3.5 6.1 0.00 0.00 0.00 72 1018.2
20260904015336 87 122 2.6 8.7 0.00 0.00 0.00 71 1018.0
20260904014309 88 150 3.5 7.8 0.00 0.00 0.00 71 1017.9
20260904013333 88 150 4.3 10.4 0.00 0.00 0.00 70 1017.7
20260904012329 88 236 2.6 7.8 0.00 0.00 0.00 70 1017.6
20260904011332 89 183 2.6 7.0 0.00 0.00 0.00 70 1017.5
20260904010326 89 143 3.5 7.0 0.00 0.00 0.00 70 1017.2
20260904005320 89 163 5.2 9.6 0.00 0.00 0.00 70 1017.1
20260904004324 90 149 2.6 7.8 0.00 0.00 0.00 71 1017.1
20260904003321 90 143 5.2 8.7 0.00 0.00 0.00 70 1016.9
20260904002322 90 236 4.3 7.8 0.00 0.00 0.00 71 1016.7
20260904001319 90 123 2.6 7.8 0.00 0.00 0.00 70 1016.7
20260904000319 91 171 2.6 4.3 0.00 0.00 0.00 69 1016.3
20260903235323 91 145 2.6 4.3 0.00 0.00 0.00 69 1016.3
20260903234320 92 156 2.6 6.1 0.00 0.00 0.00 68 1016.0
20260903233317 92 159 3.5 6.1 0.00 0.00 0.00 68 1016.0
20260903232317 92 161 2.6 6.1 0.00 0.00 0.00 67 1015.9
20260903231313 93 144 2.6 6.1 0.00 0.00 0.00 66 1016.0
20260903230309 94 74 2.6 6.1 0.00 0.00 0.00 66 1016.1
20260903225331 94 82 2.6 7.0 0.00 0.00 0.00 64 1016.2
20260903224311 95 154 2.6 7.0 0.00 0.00 0.00 64 1016.2
20260903223322 96 166 2.6 6.1 0.00 0.00 0.00 62 1016.2
20260903222324 96 157 2.6 6.1 0.00 0.00 0.00 62 1016.2
20260903221320 97 112 2.6 6.1 0.00 0.00 0.00 60 1016.2
20260903220317 98 162 2.6 6.1 0.00 0.00 0.00 58 1016.2
20260903215318 99 182 2.6 6.1 0.00 0.00 0.00 56 1016.3
20260903214313 101 155 2.6 6.1 0.00 0.00 0.00 54 1016.3
20260903213337 102 70 3.5 9.6 0.00 0.00 0.00 53 1016.2
20260903212318 102 197 2.6 6.1 0.00 0.00 0.00 53 1016.1
20260903211310 101 140 2.6 6.1 0.00 0.00 0.00 55 1016.2
20260903210311 102 99 3.5 7.8 0.00 0.00 0.00 54 1016.1
20260903205326 102 109 3.5 7.8 0.00 0.00 0.00 54 1016.1
20260903204326 102 103 3.5 7.0 0.00 0.00 0.00 54 1016.2
20260903203326 102 126 3.5 6.1 0.00 0.00 0.00 53 1016.3
20260903202338 102 126 2.6 7.0 0.00 0.00 0.00 53 1016.5
20260903201316 102 182 2.6 4.3 0.00 0.00 0.00 54 1016.6
20260903200312 102 132 2.6 5.2 0.00 0.00 0.00 53 1016.6
20260903195331 102 160 2.6 6.1 0.00 0.00 0.00 56 1016.7
20260903194324 101 92 0.9 7.0 0.00 0.00 0.00 56 1016.9
20260903193317 103 52 2.6 8.7 0.00 0.00 0.00 54 1016.9
20260903192317 103 101 3.5 7.0 0.00 0.00 0.00 54 1017.1
20260903191313 103 121 3.5 9.6 0.00 0.00 0.00 53 1017.1
20260903190334 103 157 2.6 7.0 0.00 0.00 0.00 54 1017.1
20260903185325 103 84 3.5 7.8 0.00 0.00 0.00 52 1017.2
20260903184326 104 54 2.6 4.3 0.00 0.00 0.00 52 1017.4
20260903183319 103 98 2.6 7.0 0.00 0.00 0.00 51 1017.5
20260903182313 102 128 2.6 7.0 0.00 0.00 0.00 52 1017.6
20260903181322 102 128 3.5 7.8 0.00 0.00 0.00 54 1017.6
20260903180330 101 119 2.6 7.0 0.00 0.00 0.00 56 1017.7
20260903175347 101 134 2.6 6.1 0.00 0.00 0.00 55 1017.8
20260903174328 103 214 1.7 5.2 0.00 0.00 0.00 56 1017.9
20260903173322 102 178 2.6 7.0 0.00 0.00 0.00 57 1018.0
20260903172316 102 107 0.9 7.0 0.00 0.00 0.00 54 1018.0
20260903171318 102 169 1.7 6.1 0.00 0.00 0.00 56 1018.1
20260903170310 103 109 1.7 5.2 0.00 0.00 0.00 57 1018.2
20260903165330 102 109 3.5 6.1 0.00 0.00 0.00 56 1018.4
20260903164320 102 36 2.6 6.1 0.00 0.00 0.00 57 1018.4
20260903163309 101 100 1.7 4.3 0.00 0.00 0.00 60 1018.5
20260903162326 101 53 1.7 5.2 0.00 0.00 0.00 60 1018.6
20260903161344 100 69 1.7 6.1 0.00 0.00 0.00 60 1018.7
20260903160313 99 165 2.6 4.3 0.00 0.00 0.00 62 1018.7
20260903155309 97 250 1.7 4.3 0.00 0.00 0.00 64 1018.7
20260903154324 97 194 0.9 6.1 0.00 0.00 0.00 63 1018.7
20260903153323 97 238 1.7 4.3 0.00 0.00 0.00 65 1018.7
20260903152311 95 155 1.7 4.3 0.00 0.00 0.00 67 1018.7
20260903151331 95 324 0.9 5.2 0.00 0.00 0.00 66 1018.7
20260903150324 94 214 2.6 3.5 0.00 0.00 0.00 67 1018.7
20260903145321 94 300 1.7 4.3 0.00 0.00 0.00 68 1018.7
20260903144317 93 267 2.6 4.3 0.00 0.00 0.00 68 1018.7
20260903143327 93 263 0.9 3.5 0.00 0.00 0.00 70 1018.7
20260903142347 92 252 1.7 3.5 0.00 0.00 0.00 69 1018.6
20260903141339 91 225 1.7 4.3 0.00 0.00 0.00 72 1018.6
20260903140309 90 295 2.6 7.0 0.00 0.00 0.00 72 1018.6
20260903135328 90 222 3.5 6.1 0.00 0.00 0.00 72 1018.5
20260903134320 89 237 2.6 7.0 0.00 0.00 0.00 72 1018.5
20260903133317 88 279 2.6 7.8 0.00 0.00 0.00 74 1018.5
20260903132327 88 274 4.3 7.0 0.00 0.00 0.00 75 1018.6
20260903131325 87 244 2.6 7.8 0.00 0.00 0.00 75 1018.6
20260903130316 86 248 5.2 8.7 0.00 0.00 0.00 78 1018.7
20260903125311 85 232 3.5 6.1 0.00 0.00 0.00 79 1018.7